QPF
0.05 0.04 0.05 0.06 0.06 0.05 0.05 0.08 0.10 0.12 0.11 0.11 0.10 0.09 0.09 0.10 0.11 0.11 0.13 0.14 0.15 0.15 0.14 0.12 0.08 0.12 0.18 0.12 0.09 0.08 0.11 0.15 0.11 0.08 0.07 0.07 0.06 0.07 0.08 0.09 0.11 0.06 0.05
0.04 0.04 0.05 0.06 0.07 0.09 0.06 0.05 0.05 0.06 0.09 0.13 0.14 0.12 0.11 0.09 0.09 0.11 0.12 0.14 0.15 0.14 0.12 0.08 0.05 0.10 0.16 0.12 0.09 0.10 0.12 0.15 0.09 0.08 0.08 0.06 0.06 0.07 0.08 0.11 0.12 0.08 0.08
0.02 0.03 0.04 0.04 0.05 0.06 0.06 0.05 0.04 0.05 0.08 0.11 0.11 0.10 0.11 0.08 0.08 0.09 0.09 0.10 0.12 0.12 0.10 0.09 0.07 0.08 0.09 0.08 0.07 0.09 0.13 0.12 0.10 0.13 0.15 0.07 0.04 0.07 0.08 0.10 0.10 0.09 0.06
0.01 0.02 0.04 0.05 0.04 0.04 0.04 0.03 0.05 0.04 0.06 0.07 0.08 0.08 0.09 0.09 0.08 0.06 0.07 0.08 0.08 0.08 0.08 0.09 0.10 0.10 0.08 0.07 0.06 0.08 0.10 0.08 0.12 0.22 0.21 0.10 0.06 0.06 0.06 0.07 0.07 0.06 0.04
0.01 0.02 0.02 0.03 0.04 0.04 0.02 0.03 0.04 0.04 0.05 0.06 0.07 0.09 0.11 0.11 0.07 0.06 0.07 0.06 0.06 0.07 0.07 0.07 0.09 0.12 0.11 0.08 0.07 0.08 0.08 0.08 0.13 0.16 0.14 0.11 0.06 0.06 0.05 0.04 0.03 0.04 0.04
0.01 0.01 0.02 0.02 0.02 0.03 0.02 0.03 0.02 0.03 0.04 0.05 0.07 0.10 0.09 0.08 0.07 0.07 0.07 0.06 0.06 0.06 0.07 0.07 0.07 0.12 0.13 0.09 0.08 0.07 0.08 0.11 0.16 0.14 0.13 0.07 0.06 0.08 0.06 0.04 0.04 0.04 0.05
0.00 0.01 0.02 0.03 0.03 0.02 0.02 0.02 0.02 0.03 0.04 0.04 0.05 0.05 0.06 0.06 0.06 0.06 0.05 0.05 0.04 0.05 0.05 0.07 0.10 0.14 0.20 0.15 0.09 0.07 0.07 0.12 0.13 0.11 0.12 0.10 0.07 0.07 0.06 0.06 0.05 0.04 0.04
0.00 0.01 0.02 0.02 0.02 0.02 0.02 0.02 0.02 0.02 0.03 0.03 0.03 0.02 0.03 0.04 0.04 0.04 0.03 0.03 0.02 0.02 0.03 0.06 0.12 0.15 0.20 0.17 0.11 0.09 0.07 0.09 0.07 0.07 0.10 0.10 0.04 0.04 0.05 0.06 0.05 0.06 0.05
0.01 0.02 0.03 0.02 0.01 0.02 0.02 0.02 0.02 0.02 0.02 0.02 0.02 0.03 0.03 0.03 0.03 0.02 0.02 0.02 0.02 0.02 0.04 0.07 0.18 0.12 0.09 0.10 0.12 0.12 0.10 0.07 0.06 0.07 0.08 0.07 0.04 0.05 0.06 0.06 0.05 0.05 0.05
0.01 0.02 0.04 0.02 0.02 0.02 0.02 0.01 0.01 0.01 0.01 0.01 0.01 0.02 0.02 0.03 0.02 0.01 0.01 0.01 0.02 0.02 0.04 0.14 0.27 0.13 0.09 0.08 0.14 0.15 0.14 0.11 0.08 0.07 0.07 0.05 0.04 0.04 0.05 0.05 0.04 0.05 0.05
0.01 0.02 0.03 0.04 0.03 0.02 0.01 0.01 0.01 0.01 0.02 0.02 0.02 0.03 0.08 0.08 0.04 0.03 0.02 0.01 0.02 0.02 0.03 0.09 0.19 0.16 0.13 0.09 0.10 0.10 0.12 0.09 0.09 0.09 0.06 0.02 0.02 0.04 0.04 0.04 0.04 0.06 0.06
0.01 0.01 0.03 0.04 0.02 0.01 0.01 0.01 0.03 0.03 0.04 0.06 0.04 0.06 0.11 0.09 0.07 0.03 0.02 0.01 0.01 0.01 0.02 0.02 0.07 0.15 0.15 0.16 0.16 0.13 0.09 0.04 0.03 0.04 0.04 0.02 0.02 0.05 0.06 0.04 0.03 0.05 0.05
0.01 0.00 0.01 0.03 0.02 0.01 0.01 0.01 0.02 0.04 0.05 0.04 0.03 0.04 0.06 0.03 0.02 0.03 0.04 0.03 0.03 0.03 0.05 0.03 0.06 0.10 0.10 0.16 0.16 0.12 0.07 0.04 0.03 0.03 0.02 0.02 0.02 0.04 0.06 0.05 0.04 0.05 0.05
0.00 0.00 0.00 0.01 0.02 0.01 0.01 0.01 0.02 0.02 0.02 0.03 0.03 0.02 0.02 0.02 0.03 0.04 0.07 0.06 0.06 0.07 0.08 0.06 0.07 0.05 0.04 0.06 0.07 0.07 0.04 0.03 0.02 0.02 0.02 0.02 0.02 0.04 0.06 0.05 0.05 0.07 0.07
0.01 0.01 0.01 0.01 0.01 0.02 0.02 0.01 0.01 0.01 0.02 0.01 0.02 0.02 0.01 0.01 0.03 0.04 0.05 0.06 0.04 0.04 0.04 0.05 0.04 0.04 0.04 0.04 0.04 0.03 0.03 0.02 0.02 0.02 0.03 0.02 0.01 0.02 0.05 0.06 0.09 0.09 0.04
0.02 0.02 0.01 0.01 0.01 0.02 0.02 0.02 0.01 0.01 0.02 0.02 0.02 0.02 0.01 0.01 0.03 0.03 0.04 0.04 0.04 0.04 0.05 0.05 0.04 0.06 0.07 0.06 0.04 0.02 0.02 0.02 0.01 0.02 0.05 0.03 0.01 0.01 0.04 0.06 0.07 0.04 0.03
0.01 0.01 0.01 0.01 0.01 0.02 0.02 0.02 0.01 0.00 0.01 0.02 0.02 0.02 0.01 0.02 0.03 0.03 0.04 0.05 0.03 0.04 0.04 0.04 0.04 0.05 0.07 0.07 0.05 0.03 0.03 0.03 0.02 0.03 0.04 0.06 0.05 0.02 0.04 0.04 0.04 0.03 0.03
0.00 0.00 0.01 0.01 0.02 0.02 0.02 0.03 0.01 0.01 0.00 0.01 0.01 0.01 0.01 0.02 0.02 0.03 0.04 0.04 0.04 0.04 0.04 0.04 0.05 0.05 0.08 0.07 0.06 0.06 0.04 0.04 0.03 0.03 0.03 0.06 0.07 0.06 0.04 0.02 0.02 0.03 0.04
0.00 0.00 0.01 0.01 0.02 0.03 0.04 0.03 0.02 0.01 0.01 0.01 0.00 0.01 0.02 0.02 0.02 0.03 0.04 0.05 0.04 0.03 0.04 0.04 0.06 0.07 0.08 0.06 0.04 0.06 0.06 0.06 0.06 0.03 0.03 0.04 0.05 0.07 0.07 0.03 0.02 0.03 0.04
0.00 0.00 0.01 0.01 0.02 0.03 0.03 0.03 0.03 0.02 0.02 0.01 0.01 0.02 0.03 0.02 0.02 0.02 0.04 0.05 0.04 0.04 0.05 0.04 0.06 0.06 0.07 0.07 0.05 0.05 0.07 0.06 0.05 0.05 0.03 0.02 0.04 0.05 0.06 0.07 0.05 0.03 0.02
0.00 0.00 0.01 0.01 0.02 0.02 0.03 0.05 0.06 0.06 0.04 0.03 0.02 0.02 0.02 0.02 0.03 0.04 0.04 0.06 0.04 0.05 0.05 0.04 0.05 0.07 0.05 0.05 0.08 0.08 0.07 0.07 0.06 0.04 0.03 0.03 0.02 0.03 0.05 0.09 0.07 0.07 0.05
0.00 0.00 0.01 0.01 0.01 0.01 0.03 0.05 0.06 0.07 0.04 0.03 0.02 0.03 0.02 0.01 0.01 0.03 0.04 0.05 0.04 0.06 0.05 0.04 0.07 0.08 0.07 0.05 0.10 0.13 0.14 0.14 0.10 0.05 0.03 0.03 0.03 0.02 0.03 0.05 0.06 0.08 0.07
0.00 0.00 0.01 0.01 0.02 0.03 0.03 0.03 0.05 0.07 0.05 0.05 0.04 0.04 0.02 0.01 0.01 0.02 0.04 0.04 0.05 0.04 0.07 0.07 0.05 0.06 0.06 0.06 0.07 0.12 0.16 0.17 0.13 0.09 0.05 0.03 0.03 0.04 0.03 0.02 0.04 0.06 0.08
0.00 0.00 0.00 0.01 0.02 0.02 0.02 0.02 0.04 0.06 0.06 0.06 0.06 0.06 0.04 0.03 0.02 0.02 0.04 0.04 0.05 0.05 0.08 0.05 0.04 0.06 0.07 0.07 0.08 0.07 0.09 0.11 0.12 0.12 0.08 0.05 0.03 0.04 0.04 0.03 0.02 0.05 0.05
0.00 0.01 0.01 0.01 0.01 0.01 0.01 0.02 0.03 0.04 0.05 0.06 0.06 0.08 0.07 0.05 0.03 0.03 0.04 0.04 0.05 0.04 0.05 0.05 0.07 0.06 0.05 0.07 0.08 0.08 0.08 0.09 0.08 0.10 0.10 0.08 0.07 0.05 0.04 0.04 0.04 0.06 0.05
0.01 0.01 0.02 0.01 0.01 0.01 0.01 0.01 0.02 0.03 0.06 0.06 0.06 0.08 0.07 0.06 0.05 0.04 0.05 0.06 0.05 0.06 0.06 0.06 0.05 0.04 0.05 0.07 0.07 0.06 0.07 0.09 0.09 0.09 0.10 0.09 0.07 0.07 0.05 0.05 0.05 0.07 0.06
MSLP
1009.42 1009.43 1009.53 1009.76 1010.05 1010.38 1010.64 1010.81 1010.85 1010.78 1010.65 1010.51 1010.43 1010.46 1010.59 1010.81 1011.09 1011.36 1011.60 1011.79 1011.93 1012.05 1012.16 1012.30 1012.48 1012.69 1012.91 1013.14 1013.35 1013.55 1013.73 1013.92 1014.13 1014.38 1014.66 1014.96 1015.26 1015.54 1015.78 1015.98 1016.15 1016.31 1016.48
1009.36 1009.51 1009.75 1010.06 1010.41 1010.73 1010.97 1011.09 1011.09 1010.99 1010.86 1010.77 1010.75 1010.85 1011.05 1011.32 1011.61 1011.89 1012.10 1012.26 1012.36 1012.45 1012.55 1012.69 1012.87 1013.08 1013.31 1013.52 1013.72 1013.89 1014.05 1014.23 1014.44 1014.70 1015.00 1015.33 1015.65 1015.95 1016.20 1016.40 1016.56 1016.71 1016.86
1009.32 1009.61 1009.96 1010.36 1010.75 1011.07 1011.28 1011.37 1011.34 1011.23 1011.12 1011.06 1011.10 1011.26 1011.50 1011.79 1012.09 1012.33 1012.51 1012.61 1012.68 1012.75 1012.85 1012.99 1013.18 1013.40 1013.63 1013.84 1014.01 1014.16 1014.31 1014.48 1014.70 1014.97 1015.30 1015.65 1016.01 1016.32 1016.58 1016.78 1016.94 1017.08 1017.22
1009.28 1009.70 1010.17 1010.65 1011.08 1011.42 1011.63 1011.69 1011.65 1011.54 1011.45 1011.43 1011.51 1011.70 1011.96 1012.24 1012.51 1012.71 1012.83 1012.90 1012.94 1012.99 1013.09 1013.25 1013.45 1013.68 1013.91 1014.10 1014.25 1014.38 1014.50 1014.66 1014.89 1015.18 1015.54 1015.93 1016.32 1016.65 1016.92 1017.13 1017.28 1017.41 1017.55
1009.25 1009.78 1010.34 1010.91 1011.41 1011.78 1012.00 1012.07 1012.02 1011.93 1011.85 1011.86 1011.96 1012.15 1012.41 1012.66 1012.89 1013.03 1013.11 1013.15 1013.17 1013.22 1013.34 1013.51 1013.73 1013.97 1014.18 1014.34 1014.46 1014.55 1014.65 1014.80 1015.03 1015.35 1015.74 1016.17 1016.58 1016.94 1017.23 1017.43 1017.59 1017.72 1017.86
1009.19 1009.80 1010.47 1011.12 1011.68 1012.11 1012.36 1012.46 1012.43 1012.36 1012.30 1012.31 1012.42 1012.60 1012.83 1013.05 1013.23 1013.34 1013.38 1013.40 1013.42 1013.49 1013.63 1013.83 1014.06 1014.29 1014.48 1014.60 1014.67 1014.72 1014.79 1014.92 1015.16 1015.50 1015.92 1016.38 1016.83 1017.21 1017.50 1017.71 1017.86 1017.99 1018.14
1009.09 1009.77 1010.51 1011.24 1011.87 1012.36 1012.66 1012.80 1012.81 1012.76 1012.72 1012.74 1012.84 1013.01 1013.21 1013.40 1013.54 1013.62 1013.66 1013.67 1013.72 1013.82 1013.99 1014.21 1014.45 1014.66 1014.81 1014.88 1014.90 1014.90 1014.93 1015.05 1015.29 1015.65 1016.10 1016.59 1017.06 1017.46 1017.76 1017.96 1018.10 1018.23 1018.38
1008.97 1009.67 1010.45 1011.24 1011.94 1012.48 1012.84 1013.03 1013.08 1013.06 1013.05 1013.09 1013.19 1013.35 1013.53 1013.70 1013.82 1013.90 1013.94 1013.98 1014.06 1014.20 1014.40 1014.64 1014.87 1015.05 1015.16 1015.17 1015.13 1015.08 1015.08 1015.18 1015.43 1015.81 1016.29 1016.81 1017.30 1017.71 1018.01 1018.20 1018.33 1018.44 1018.59
1008.83 1009.52 1010.31 1011.12 1011.86 1012.45 1012.86 1013.09 1013.18 1013.21 1013.24 1013.30 1013.42 1013.59 1013.77 1013.93 1014.07 1014.16 1014.22 1014.30 1014.42 1014.59 1014.81 1015.05 1015.27 1015.42 1015.47 1015.44 1015.34 1015.25 1015.22 1015.33 1015.58 1015.99 1016.50 1017.04 1017.55 1017.96 1018.26 1018.44 1018.54 1018.63 1018.76
1008.71 1009.35 1010.13 1010.93 1011.67 1012.28 1012.72 1012.98 1013.12 1013.20 1013.27 1013.37 1013.53 1013.72 1013.92 1014.11 1014.27 1014.38 1014.48 1014.59 1014.73 1014.93 1015.16 1015.39 1015.59 1015.70 1015.71 1015.63 1015.49 1015.38 1015.34 1015.45 1015.72 1016.16 1016.69 1017.26 1017.78 1018.21 1018.49 1018.66 1018.75 1018.81 1018.91
1008.66 1009.24 1009.96 1010.72 1011.43 1012.02 1012.45 1012.74 1012.92 1013.04 1013.16 1013.32 1013.53 1013.76 1014.01 1014.23 1014.41 1014.56 1014.69 1014.82 1014.98 1015.17 1015.40 1015.60 1015.77 1015.84 1015.82 1015.71 1015.57 1015.45 1015.42 1015.54 1015.84 1016.29 1016.85 1017.44 1017.98 1018.41 1018.70 1018.86 1018.93 1018.97 1019.05
1008.71 1009.23 1009.87 1010.55 1011.20 1011.73 1012.14 1012.43 1012.63 1012.79 1012.97 1013.19 1013.45 1013.74 1014.03 1014.30 1014.52 1014.69 1014.83 1014.97 1015.12 1015.30 1015.50 1015.68 1015.80 1015.85 1015.81 1015.70 1015.55 1015.45 1015.44 1015.59 1015.91 1016.38 1016.95 1017.55 1018.10 1018.55 1018.85 1019.02 1019.09 1019.12 1019.17
1008.89 1009.34 1009.90 1010.48 1011.03 1011.49 1011.84 1012.11 1012.32 1012.52 1012.74 1013.01 1013.33 1013.68 1014.02 1014.32 1014.57 1014.76 1014.91 1015.04 1015.18 1015.33 1015.48 1015.62 1015.72 1015.76 1015.71 1015.60 1015.49 1015.41 1015.43 1015.60 1015.93 1016.41 1016.98 1017.58 1018.14 1018.59 1018.91 1019.10 1019.19 1019.24 1019.28
1009.17 1009.58 1010.05 1010.53 1010.97 1011.33 1011.62 1011.84 1012.04 1012.26 1012.52 1012.84 1013.21 1013.60 1013.98 1014.31 1014.58 1014.78 1014.93 1015.04 1015.16 1015.27 1015.40 1015.51 1015.59 1015.61 1015.58 1015.51 1015.42 1015.38 1015.42 1015.60 1015.93 1016.39 1016.94 1017.52 1018.07 1018.53 1018.87 1019.10 1019.23 1019.31 1019.38
1009.50 1009.88 1010.28 1010.65 1010.98 1011.26 1011.47 1011.66 1011.84 1012.06 1012.34 1012.69 1013.09 1013.51 1013.91 1014.26 1014.54 1014.75 1014.89 1015.00 1015.09 1015.19 1015.29 1015.39 1015.47 1015.50 1015.50 1015.46 1015.41 1015.40 1015.47 1015.64 1015.94 1016.35 1016.85 1017.39 1017.90 1018.36 1018.72 1018.99 1019.18 1019.31 1019.42
1009.80 1010.16 1010.50 1010.80 1011.05 1011.24 1011.40 1011.55 1011.72 1011.93 1012.22 1012.57 1012.97 1013.40 1013.80 1014.16 1014.45 1014.66 1014.81 1014.92 1015.02 1015.12 1015.22 1015.33 1015.42 1015.48 1015.52 1015.52 1015.52 1015.53 1015.60 1015.74 1015.99 1016.33 1016.75 1017.21 1017.67 1018.10 1018.47 1018.78 1019.02 1019.22 1019.38
1009.97 1010.33 1010.64 1010.89 1011.08 1011.23 1011.36 1011.48 1011.64 1011.85 1012.12 1012.46 1012.84 1013.25 1013.64 1013.99 1014.28 1014.51 1014.69 1014.83 1014.96 1015.08 1015.21 1015.34 1015.47 1015.58 1015.66 1015.70 1015.73 1015.77 1015.83 1015.93 1016.11 1016.35 1016.66 1017.02 1017.40 1017.78 1018.14 1018.47 1018.76 1019.02 1019.24
1009.96 1010.33 1010.62 1010.85 1011.03 1011.17 1011.30 1011.43 1011.59 1011.79 1012.04 1012.35 1012.69 1013.05 1013.41 1013.74 1014.04 1014.29 1014.51 1014.71 1014.89 1015.07 1015.25 1015.43 1015.61 1015.76 1015.89 1015.98 1016.04 1016.08 1016.13 1016.19 1016.28 1016.43 1016.62 1016.86 1017.13 1017.43 1017.75 1018.08 1018.40 1018.70 1018.98
1009.72 1010.11 1010.42 1010.66 1010.87 1011.04 1011.20 1011.36 1011.54 1011.73 1011.96 1012.22 1012.51 1012.81 1013.12 1013.43 1013.73 1014.02 1014.29 1014.55 1014.81 1015.06 1015.31 1015.55 1015.78 1015.98 1016.15 1016.27 1016.36 1016.42 1016.45 1016.47 1016.49 1016.54 1016.61 1016.72 1016.89 1017.09 1017.34 1017.63 1017.95 1018.27 1018.59
1009.30 1009.70 1010.04 1010.33 1010.59 1010.83 1011.05 1011.27 1011.48 1011.68 1011.89 1012.09 1012.31 1012.54 1012.80 1013.08 1013.37 1013.69 1014.02 1014.35 1014.69 1015.02 1015.34 1015.64 1015.91 1016.15 1016.35 1016.51 1016.62 1016.69 1016.72 1016.71 1016.68 1016.65 1016.63 1016.63 1016.67 1016.77 1016.93 1017.16 1017.44 1017.76 1018.09
1008.75 1009.17 1009.55 1009.90 1010.23 1010.56 1010.88 1011.16 1011.42 1011.64 1011.82 1011.98 1012.12 1012.29 1012.48 1012.72 1013.01 1013.34 1013.72 1014.13 1014.53 1014.93 1015.30 1015.64 1015.94 1016.20 1016.42 1016.60 1016.73 1016.82 1016.86 1016.86 1016.81 1016.73 1016.63 1016.54 1016.49 1016.48 1016.54 1016.68 1016.90 1017.17 1017.49
1008.16 1008.60 1009.02 1009.43 1009.86 1010.28 1010.69 1011.07 1011.38 1011.62 1011.79 1011.90 1011.98 1012.07 1012.20 1012.40 1012.67 1013.02 1013.43 1013.88 1014.33 1014.77 1015.17 1015.53 1015.84 1016.10 1016.32 1016.51 1016.66 1016.78 1016.84 1016.86 1016.82 1016.73 1016.60 1016.46 1016.32 1016.22 1016.18 1016.22 1016.35 1016.56 1016.83
1007.61 1008.08 1008.53 1009.01 1009.52 1010.03 1010.53 1010.98 1011.35 1011.62 1011.79 1011.87 1011.90 1011.93 1012.00 1012.15 1012.40 1012.73 1013.16 1013.62 1014.10 1014.55 1014.96 1015.30 1015.59 1015.84 1016.05 1016.23 1016.40 1016.53 1016.64 1016.70 1016.70 1016.64 1016.51 1016.34 1016.15 1015.97 1015.84 1015.78 1015.82 1015.94 1016.15
1007.20 1007.67 1008.16 1008.68 1009.24 1009.82 1010.39 1010.90 1011.33 1011.62 1011.80 1011.86 1011.86 1011.85 1011.88 1011.98 1012.19 1012.51 1012.92 1013.38 1013.84 1014.28 1014.67 1014.99 1015.24 1015.45 1015.63 1015.80 1015.97 1016.14 1016.28 1016.40 1016.45 1016.43 1016.33 1016.17 1015.96 1015.73 1015.53 1015.39 1015.33 1015.36 1015.50
1006.94 1007.42 1007.91 1008.45 1009.03 1009.64 1010.24 1010.80 1011.27 1011.60 1011.79 1011.86 1011.84 1011.80 1011.79 1011.86 1012.04 1012.33 1012.71 1013.14 1013.57 1013.98 1014.33 1014.60 1014.82 1014.98 1015.13 1015.28 1015.45 1015.64 1015.82 1015.98 1016.10 1016.14 1016.08 1015.95 1015.74 1015.49 1015.25 1015.04 1014.90 1014.85 1014.91
1006.85 1007.31 1007.78 1008.29 1008.85 1009.46 1010.08 1010.65 1011.14 1011.50 1011.71 1011.79 1011.78 1011.74 1011.71 1011.75 1011.89 1012.14 1012.48 1012.87 1013.27 1013.64 1013.95 1014.19 1014.36 1014.50 1014.61 1014.75 1014.91 1015.10 1015.31 1015.51 1015.68 1015.77 1015.77 1015.67 1015.49 1015.25 1014.99 1014.74 1014.54 1014.43 1014.42
Thickness
5796 5793 5789 5788 5788 5787 5786 5785 5783 5783 5782 5781 5780 5779 5778 5778 5777 5776 5775 5773 5772 5770 5769 5768 5766 5765 5763 5762 5761 5760 5759 5758 5756 5754 5753 5751 5751 5750 5749 5748 5747 5745 5743
5799 5792 5788 5788 5787 5785 5784 5783 5782 5781 5780 5779 5778 5777 5776 5775 5775 5774 5772 5771 5770 5768 5767 5766 5764 5763 5761 5760 5759 5758 5757 5756 5755 5753 5752 5750 5749 5748 5747 5747 5745 5743 5741
5800 5793 5789 5787 5785 5784 5783 5781 5780 5779 5778 5777 5776 5775 5774 5773 5772 5771 5770 5769 5768 5766 5765 5764 5763 5761 5759 5758 5757 5757 5756 5754 5753 5752 5751 5750 5748 5746 5746 5745 5743 5741 5739
5801 5794 5789 5785 5784 5783 5781 5780 5778 5777 5776 5775 5774 5773 5772 5772 5771 5770 5768 5768 5766 5765 5763 5762 5761 5760 5758 5757 5756 5756 5755 5753 5752 5752 5751 5750 5747 5745 5744 5743 5741 5739 5738
5801 5793 5787 5784 5782 5781 5780 5778 5777 5775 5774 5773 5772 5772 5771 5770 5769 5768 5767 5766 5765 5763 5762 5761 5760 5758 5757 5756 5756 5755 5754 5753 5752 5751 5750 5748 5745 5743 5742 5741 5739 5737 5736
5801 5793 5786 5783 5781 5780 5778 5777 5775 5774 5773 5772 5770 5770 5769 5768 5767 5766 5765 5764 5763 5762 5761 5760 5758 5757 5756 5756 5755 5754 5754 5753 5752 5751 5748 5746 5743 5741 5740 5739 5738 5736 5734
5801 5793 5786 5782 5780 5778 5777 5776 5774 5772 5771 5770 5769 5768 5768 5767 5766 5765 5764 5763 5762 5761 5760 5759 5758 5756 5756 5755 5754 5754 5754 5753 5753 5750 5747 5744 5741 5740 5739 5737 5736 5734 5732
5803 5794 5786 5782 5779 5778 5776 5775 5773 5771 5770 5769 5768 5767 5766 5765 5764 5763 5762 5761 5760 5759 5758 5757 5757 5756 5755 5754 5754 5754 5754 5754 5753 5750 5745 5741 5739 5738 5737 5736 5734 5733 5731
5805 5796 5789 5783 5779 5777 5775 5773 5772 5770 5769 5768 5767 5765 5764 5763 5762 5761 5760 5760 5759 5758 5757 5757 5756 5755 5754 5754 5754 5754 5754 5754 5752 5749 5745 5740 5738 5737 5735 5734 5733 5731 5729
5806 5799 5793 5787 5782 5779 5775 5773 5771 5769 5768 5767 5766 5765 5764 5762 5761 5760 5759 5758 5757 5756 5756 5756 5754 5753 5753 5753 5753 5754 5753 5752 5751 5748 5743 5739 5738 5736 5734 5733 5732 5730 5728
5804 5801 5796 5790 5786 5783 5779 5774 5771 5769 5767 5766 5765 5764 5764 5763 5762 5759 5758 5757 5756 5755 5755 5754 5754 5753 5752 5752 5753 5754 5753 5753 5751 5747 5742 5739 5737 5735 5734 5732 5730 5729 5727
5799 5800 5798 5794 5790 5787 5783 5776 5774 5772 5768 5767 5766 5765 5764 5763 5762 5760 5757 5756 5756 5755 5754 5754 5753 5752 5752 5753 5753 5754 5754 5754 5751 5746 5741 5739 5737 5735 5733 5732 5730 5728 5726
5802 5801 5799 5795 5792 5789 5785 5781 5778 5774 5771 5769 5767 5766 5765 5764 5762 5760 5758 5756 5755 5755 5755 5754 5753 5754 5754 5754 5755 5755 5755 5754 5751 5746 5741 5739 5737 5735 5733 5731 5729 5727 5725
5803 5802 5800 5796 5793 5790 5788 5785 5781 5777 5774 5771 5768 5768 5766 5765 5764 5762 5760 5759 5758 5757 5757 5756 5756 5756 5756 5756 5756 5756 5756 5754 5751 5746 5742 5740 5738 5735 5733 5731 5729 5727 5725
5803 5802 5800 5797 5792 5790 5787 5785 5783 5779 5776 5773 5770 5768 5767 5766 5764 5762 5761 5760 5760 5759 5758 5757 5757 5756 5756 5756 5756 5756 5755 5754 5751 5748 5743 5740 5738 5736 5733 5731 5729 5727 5725
5805 5803 5800 5796 5792 5789 5786 5784 5783 5780 5777 5774 5770 5768 5767 5765 5763 5762 5760 5760 5759 5759 5758 5756 5756 5755 5755 5754 5754 5754 5754 5753 5751 5748 5744 5741 5738 5736 5734 5731 5729 5727 5725
5808 5805 5800 5797 5792 5788 5786 5784 5783 5781 5778 5774 5771 5768 5766 5764 5762 5762 5760 5759 5759 5758 5757 5756 5756 5755 5754 5754 5753 5753 5753 5752 5750 5748 5745 5742 5739 5736 5734 5732 5730 5728 5726
5811 5806 5803 5800 5794 5789 5786 5784 5783 5782 5779 5775 5771 5768 5765 5763 5762 5761 5760 5760 5759 5758 5757 5756 5755 5753 5753 5752 5751 5752 5752 5751 5750 5749 5747 5744 5741 5739 5736 5734 5732 5730 5727
5813 5808 5803 5800 5794 5790 5787 5784 5782 5781 5778 5776 5772 5769 5765 5763 5762 5760 5760 5759 5759 5759 5757 5757 5754 5753 5751 5751 5751 5751 5751 5750 5751 5751 5749 5747 5744 5742 5739 5736 5733 5731 5729
5816 5810 5805 5800 5796 5791 5787 5783 5781 5779 5777 5775 5773 5769 5766 5764 5762 5761 5760 5759 5759 5758 5757 5755 5753 5753 5752 5751 5752 5751 5751 5751 5751 5751 5749 5748 5746 5744 5742 5739 5735 5733 5731
5816 5810 5805 5800 5796 5792 5787 5782 5777 5775 5775 5774 5772 5769 5766 5765 5764 5762 5761 5759 5759 5757 5756 5756 5754 5752 5751 5752 5749 5746 5749 5752 5752 5752 5750 5749 5748 5747 5745 5742 5739 5736 5734
5816 5811 5806 5801 5798 5794 5790 5786 5782 5779 5777 5775 5774 5771 5768 5766 5764 5763 5761 5760 5759 5757 5756 5755 5753 5751 5751 5753 5747 5741 5737 5740 5747 5752 5751 5750 5750 5749 5747 5745 5743 5740 5738
5818 5813 5809 5804 5800 5796 5792 5788 5784 5779 5776 5774 5772 5770 5768 5766 5764 5763 5762 5761 5760 5758 5755 5754 5754 5751 5748 5750 5751 5744 5735 5731 5738 5745 5749 5750 5751 5750 5749 5748 5745 5743 5740
5823 5818 5813 5807 5802 5798 5794 5789 5783 5777 5773 5774 5773 5771 5769 5767 5765 5764 5763 5762 5760 5759 5757 5755 5755 5754 5751 5747 5750 5751 5748 5744 5736 5733 5742 5748 5749 5748 5748 5749 5748 5745 5743
5828 5822 5816 5809 5803 5799 5795 5791 5785 5781 5779 5778 5776 5773 5769 5768 5766 5765 5764 5762 5760 5759 5758 5757 5756 5755 5753 5750 5749 5749 5748 5746 5744 5736 5732 5739 5744 5747 5748 5749 5748 5745 5744
5829 5825 5818 5810 5804 5800 5796 5793 5788 5783 5780 5777 5774 5771 5769 5768 5767 5766 5765 5764 5762 5760 5759 5758 5757 5755 5754 5753 5751 5750 5747 5744 5742 5740 5736 5736 5738 5744 5748 5749 5748 5746 5745